CEB814 WSSS-RPLL

Flight info

Callsign CEB814
Flight time 2h 5m
Altitude 35000
Route TOMAN5B TOMAN L625 LUSMO N884 LUBAN LUBAN3R
Aircraft A320/M-SDE3FGHIRWY/LB1

Departure

Time 2026-05-07 13:42
Airport Singapore Changi Airport (WSSS)

Arrival

Time 2026-05-07 15:47
Airport Ninoy Aquino International Airport (RPLL)
Time Latitude Longitude Altitude Speed Heading
2026-05-07 13:11 1.36063 103.99221 24 ft 0 kts 290°
2026-05-07 13:32 1.36060 103.99229 24 ft 2 kts 290°
2026-05-07 13:32 1.36055 103.99244 24 ft 2 kts 290°
2026-05-07 13:32 1.36049 103.99259 24 ft 2 kts 290°
2026-05-07 13:32 1.36044 103.99275 26 ft 2 kts 290°
2026-05-07 13:33 1.36038 103.99290 28 ft 2 kts 294°
2026-05-07 13:33 1.36030 103.99304 30 ft 2 kts 315°
2026-05-07 13:33 1.36018 103.99314 26 ft 2 kts 341°
2026-05-07 13:33 1.36002 103.99317 27 ft 2 kts 16°
2026-05-07 13:34 1.35992 103.99314 28 ft 0 kts 22°
2026-05-07 13:36 1.35991 103.99314 29 ft 0 kts 31°
2026-05-07 13:36 1.35992 103.99314 26 ft 2 kts 34°
2026-05-07 13:37 1.36026 103.99306 30 ft 10 kts 310°
2026-05-07 13:37 1.36068 103.99320 33 ft 8 kts 76°
2026-05-07 13:37 1.36106 103.99361 29 ft 12 kts 27°
2026-05-07 13:37 1.36208 103.99404 30 ft 20 kts 21°
2026-05-07 13:38 1.36330 103.99504 30 ft 26 kts 52°
2026-05-07 13:38 1.36382 103.99592 30 ft 2 kts 171°
2026-05-07 13:38 1.36335 103.99584 30 ft 11 kts 160°
2026-05-07 13:38 1.36297 103.99657 30 ft 12 kts 113°
2026-05-07 13:39 1.36260 103.99733 29 ft 12 kts 116°
2026-05-07 13:39 1.36229 103.99811 29 ft 11 kts 111°
2026-05-07 13:39 1.36222 103.99830 25 ft 1 kts 110°
2026-05-07 13:39 1.36221 103.99832 26 ft 0 kts 110°
2026-05-07 13:40 1.36219 103.99838 24 ft 3 kts 113°
2026-05-07 13:40 1.36195 103.99877 24 ft 9 kts 121°
2026-05-07 13:40 1.36134 103.99872 26 ft 12 kts 213°
2026-05-07 13:41 1.36032 103.99824 23 ft 26 kts 202°
2026-05-07 13:41 1.35652 103.99674 28 ft 91 kts 203°
2026-05-07 13:41 1.34894 103.99348 27 ft 144 kts 202°
2026-05-07 13:41 1.33850 103.98905 166 ft 172 kts 202°
2026-05-07 13:42 1.32791 103.98450 961 ft 161 kts 202°
2026-05-07 13:42 1.31765 103.98071 1668 ft 156 kts 187°
2026-05-07 13:42 1.30682 103.98233 2106 ft 168 kts 148°
2026-05-07 13:42 1.29920 103.99151 2499 ft 180 kts 110°
2026-05-07 13:43 1.29515 104.00371 2850 ft 193 kts 109°
2026-05-07 13:43 1.29078 104.01692 3158 ft 207 kts 110°
2026-05-07 13:43 1.28588 104.03102 3440 ft 223 kts 110°
2026-05-07 13:43 1.28046 104.04628 3729 ft 245 kts 110°
2026-05-07 13:44 1.27466 104.06301 4119 ft 263 kts 110°
2026-05-07 13:44 1.26845 104.08065 4708 ft 272 kts 110°
2026-05-07 13:44 1.26210 104.09862 5453 ft 275 kts 110°
2026-05-07 13:44 1.25572 104.11665 6231 ft 277 kts 110°
2026-05-07 13:45 1.24931 104.13484 6962 ft 278 kts 110°
2026-05-07 13:45 1.24286 104.15322 7650 ft 281 kts 108°
2026-05-07 13:45 1.23937 104.17268 8364 ft 284 kts 89°
2026-05-07 13:45 1.24143 104.19214 9044 ft 287 kts 83°
2026-05-07 13:46 1.24400 104.21200 9715 ft 290 kts 82°
2026-05-07 13:46 1.24685 104.23239 10227 ft 299 kts 82°
2026-05-07 13:46 1.24991 104.25344 10355 ft 321 kts 82°
2026-05-07 13:46 1.25330 104.27646 10548 ft 339 kts 82°
2026-05-07 13:47 1.25671 104.29968 11074 ft 343 kts 82°
2026-05-07 13:47 1.26021 104.32366 11676 ft 346 kts 82°
2026-05-07 13:47 1.26362 104.34726 12265 ft 349 kts 82°
2026-05-07 13:47 1.26709 104.37135 12852 ft 351 kts 82°
2026-05-07 13:48 1.27060 104.39585 13429 ft 354 kts 82°
2026-05-07 13:48 1.27411 104.42029 13954 ft 356 kts 82°
2026-05-07 13:48 1.27764 104.44487 14457 ft 358 kts 82°
2026-05-07 13:48 1.28117 104.46953 14961 ft 360 kts 82°
2026-05-07 13:49 1.28474 104.49442 15454 ft 363 kts 82°
2026-05-07 13:49 1.28832 104.51939 15944 ft 365 kts 82°
2026-05-07 13:49 1.29192 104.54458 16432 ft 367 kts 82°
2026-05-07 13:49 1.29555 104.56985 16909 ft 369 kts 82°
2026-05-07 13:50 1.29920 104.59535 17382 ft 372 kts 82°
2026-05-07 13:50 1.30287 104.62103 17846 ft 374 kts 82°
2026-05-07 13:50 1.30655 104.64678 18276 ft 376 kts 82°
2026-05-07 13:50 1.31027 104.67278 18666 ft 379 kts 82°
2026-05-07 13:51 1.31401 104.69894 19040 ft 381 kts 82°
2026-05-07 13:51 1.31776 104.72518 19412 ft 383 kts 82°
2026-05-07 13:51 1.32155 104.75168 19779 ft 386 kts 82°
2026-05-07 13:51 1.32537 104.77835 20134 ft 388 kts 82°
2026-05-07 13:52 1.32923 104.80509 20499 ft 391 kts 82°
2026-05-07 13:52 1.33311 104.83207 20843 ft 393 kts 82°
2026-05-07 13:52 1.33703 104.85923 21192 ft 396 kts 82°
2026-05-07 13:52 1.34086 104.88647 21538 ft 398 kts 83°
2026-05-07 13:53 1.34226 104.91419 21875 ft 400 kts 88°
2026-05-07 13:53 1.34288 104.94203 22207 ft 403 kts 88°
2026-05-07 13:53 1.34355 104.97013 22536 ft 405 kts 88°
2026-05-07 13:53 1.34424 104.99838 22859 ft 407 kts 88°
2026-05-07 13:54 1.34494 105.02670 23170 ft 410 kts 88°
2026-05-07 13:54 1.34563 105.05528 23479 ft 412 kts 88°
2026-05-07 13:54 1.34631 105.08397 23743 ft 414 kts 88°
2026-05-07 13:54 1.34700 105.11283 24010 ft 416 kts 88°
2026-05-07 13:55 1.34767 105.14172 24279 ft 418 kts 88°
2026-05-07 13:55 1.34832 105.17082 24546 ft 419 kts 88°
2026-05-07 13:55 1.34901 105.20004 24810 ft 421 kts 88°
2026-05-07 13:55 1.34972 105.22929 25070 ft 423 kts 88°
2026-05-07 13:56 1.35044 105.25874 25343 ft 424 kts 88°
2026-05-07 13:56 1.35114 105.28822 25596 ft 426 kts 88°
2026-05-07 13:56 1.35185 105.31791 25851 ft 428 kts 88°
2026-05-07 13:56 1.35256 105.34773 26103 ft 429 kts 88°
2026-05-07 13:57 1.35330 105.37756 26343 ft 431 kts 88°
2026-05-07 13:57 1.35405 105.40760 26585 ft 433 kts 88°
2026-05-07 13:57 1.35477 105.43777 26827 ft 435 kts 88°
2026-05-07 13:57 1.35542 105.46795 27055 ft 436 kts 88°
2026-05-07 13:58 1.35608 105.49832 27285 ft 438 kts 88°
2026-05-07 13:58 1.35682 105.52883 27520 ft 440 kts 88°
2026-05-07 13:58 1.35762 105.55946 27752 ft 441 kts 88°
2026-05-07 13:58 1.35842 105.59018 27985 ft 443 kts 88°
2026-05-07 13:59 1.35916 105.62094 28214 ft 445 kts 88°
2026-05-07 13:59 1.35986 105.65191 28440 ft 446 kts 88°
2026-05-07 13:59 1.36057 105.68290 28657 ft 448 kts 88°
2026-05-07 13:59 1.36210 105.71404 28870 ft 449 kts 82°
2026-05-07 14:00 1.36920 105.74444 29069 ft 450 kts 70°
2026-05-07 14:00 1.38249 105.77270 29268 ft 452 kts 58°
2026-05-07 14:00 1.40150 105.79781 29443 ft 454 kts 47°
2026-05-07 14:00 1.42535 105.81867 29626 ft 457 kts 35°
2026-05-07 14:01 1.45284 105.83468 29805 ft 460 kts 28°
2026-05-07 14:01 1.48131 105.84950 29982 ft 462 kts 28°
2026-05-07 14:01 1.50994 105.86425 30138 ft 463 kts 28°
2026-05-07 14:01 1.53857 105.87895 30322 ft 464 kts 28°
2026-05-07 14:02 1.56726 105.89370 30568 ft 463 kts 28°
2026-05-07 14:02 1.59578 105.90844 30799 ft 462 kts 28°
2026-05-07 14:02 1.62435 105.92324 31034 ft 462 kts 28°
2026-05-07 14:02 1.65281 105.93796 31274 ft 461 kts 28°
2026-05-07 14:03 1.68132 105.95274 31509 ft 461 kts 28°
2026-05-07 14:03 1.70980 105.96753 31744 ft 461 kts 28°
2026-05-07 14:03 1.73817 105.98225 31982 ft 460 kts 28°
2026-05-07 14:03 1.76662 105.99698 32223 ft 460 kts 28°
2026-05-07 14:04 1.79505 106.01168 32464 ft 459 kts 28°
2026-05-07 14:04 1.82337 106.02633 32698 ft 459 kts 28°
2026-05-07 14:04 1.85177 106.04103 32937 ft 459 kts 28°
2026-05-07 14:04 1.88014 106.05571 33186 ft 459 kts 28°
2026-05-07 14:05 1.90841 106.07033 33425 ft 458 kts 28°
2026-05-07 14:05 1.93676 106.08498 33675 ft 458 kts 28°
2026-05-07 14:05 1.96498 106.09959 33905 ft 458 kts 28°
2026-05-07 14:05 1.99327 106.11427 34115 ft 457 kts 28°
2026-05-07 14:06 2.02152 106.12892 34321 ft 457 kts 28°
2026-05-07 14:06 2.04966 106.14348 34527 ft 456 kts 28°
2026-05-07 14:06 2.07786 106.15805 34729 ft 455 kts 28°
2026-05-07 14:06 2.10604 106.17260 34841 ft 454 kts 28°
2026-05-07 14:07 2.13406 106.18707 34864 ft 451 kts 28°
2026-05-07 14:07 2.18970 106.21583 34864 ft 450 kts 28°
2026-05-07 14:08 2.24521 106.24459 34867 ft 449 kts 28°
2026-05-07 14:08 2.30085 106.27334 34866 ft 450 kts 28°
2026-05-07 14:09 2.35632 106.30205 34866 ft 450 kts 28°
2026-05-07 14:09 2.45196 106.35160 34869 ft 450 kts 28°
2026-05-07 14:10 2.56321 106.40915 34867 ft 450 kts 28°
2026-05-07 14:10 2.67449 106.46682 34869 ft 451 kts 28°
2026-05-07 14:11 2.78596 106.52461 34872 ft 451 kts 28°
2026-05-07 14:11 2.89748 106.58226 34876 ft 451 kts 28°
2026-05-07 14:12 3.00902 106.64005 34884 ft 452 kts 28°
2026-05-07 14:12 3.10263 106.68843 34886 ft 452 kts 28°
2026-05-07 14:13 3.21359 106.74596 34884 ft 451 kts 28°
2026-05-07 14:13 3.32580 106.80414 34885 ft 451 kts 28°
2026-05-07 14:14 3.43724 106.86179 34885 ft 451 kts 28°
2026-05-07 14:14 3.54782 106.92085 34882 ft 449 kts 37°
2026-05-07 14:14 3.59194 106.96405 34878 ft 445 kts 53°
2026-05-07 14:15 3.63064 107.01246 34875 ft 445 kts 52°
2026-05-07 14:15 3.70860 107.10873 34869 ft 445 kts 52°
2026-05-07 14:16 3.78655 107.20542 34873 ft 446 kts 52°
2026-05-07 14:16 3.86435 107.30211 34868 ft 446 kts 52°
2026-05-07 14:17 3.94233 107.39885 34867 ft 447 kts 52°
2026-05-07 14:17 4.02033 107.49577 34866 ft 447 kts 52°
2026-05-07 14:18 4.09851 107.59298 34868 ft 448 kts 52°
2026-05-07 14:18 4.17658 107.69006 34870 ft 447 kts 52°
2026-05-07 14:19 4.25463 107.78711 34873 ft 447 kts 52°
2026-05-07 14:19 4.33275 107.88427 34876 ft 447 kts 52°
2026-05-07 14:20 4.41063 107.98128 34877 ft 447 kts 52°
2026-05-07 14:20 4.48855 108.07817 34875 ft 446 kts 52°
2026-05-07 14:21 4.56641 108.17506 34876 ft 446 kts 52°
2026-05-07 14:21 4.64408 108.27205 34873 ft 446 kts 52°
2026-05-07 14:22 4.72198 108.36910 34874 ft 446 kts 52°
2026-05-07 14:22 4.80011 108.46566 34871 ft 446 kts 52°
2026-05-07 14:23 4.87829 108.56213 34876 ft 446 kts 52°
2026-05-07 14:23 4.95650 108.65881 34872 ft 446 kts 52°
2026-05-07 14:24 5.03457 108.75531 34874 ft 446 kts 52°
2026-05-07 14:24 5.11260 108.85173 34871 ft 445 kts 52°
2026-05-07 14:25 5.19067 108.94844 34874 ft 445 kts 52°
2026-05-07 14:25 5.26868 109.04495 34874 ft 445 kts 52°
2026-05-07 14:26 5.34666 109.14150 34873 ft 445 kts 52°
2026-05-07 14:26 5.42474 109.23823 34877 ft 445 kts 52°
2026-05-07 14:27 5.50256 109.33481 34877 ft 445 kts 52°
2026-05-07 14:27 5.58037 109.43128 34875 ft 444 kts 52°
2026-05-07 14:28 5.65805 109.52770 34878 ft 444 kts 52°
2026-05-07 14:28 5.73578 109.62397 34875 ft 444 kts 52°
2026-05-07 14:29 5.81352 109.72043 34874 ft 444 kts 52°
2026-05-07 14:29 5.89096 109.81685 34874 ft 444 kts 52°
2026-05-07 14:30 5.96855 109.91314 34874 ft 443 kts 52°
2026-05-07 14:30 6.04606 110.00939 34873 ft 443 kts 52°
2026-05-07 14:31 6.12352 110.10588 34873 ft 443 kts 51°
2026-05-07 14:31 6.20084 110.20213 34870 ft 443 kts 52°
2026-05-07 14:32 6.27814 110.29833 34873 ft 442 kts 52°
2026-05-07 14:32 6.35553 110.39456 34872 ft 442 kts 52°
2026-05-07 14:33 6.43267 110.49096 34872 ft 442 kts 52°
2026-05-07 14:33 6.50969 110.58710 34870 ft 441 kts 51°
2026-05-07 14:34 6.58671 110.68316 34871 ft 441 kts 52°
2026-05-07 14:34 6.66363 110.77924 34871 ft 441 kts 51°
2026-05-07 14:35 6.74058 110.87526 34871 ft 441 kts 51°
2026-05-07 14:35 6.81753 110.97148 34871 ft 441 kts 51°
2026-05-07 14:36 6.89434 111.06750 34870 ft 440 kts 51°
2026-05-07 14:36 6.97100 111.16360 34868 ft 440 kts 51°
2026-05-07 14:37 7.04771 111.25966 34865 ft 440 kts 51°
2026-05-07 14:37 7.16286 111.40393 34864 ft 441 kts 50°
2026-05-07 14:38 7.23973 111.50033 34863 ft 441 kts 50°
2026-05-07 14:38 7.31635 111.59681 34863 ft 441 kts 50°
2026-05-07 14:39 7.39289 111.69351 34861 ft 442 kts 50°
2026-05-07 14:39 7.46944 111.79059 34866 ft 442 kts 50°
2026-05-07 14:40 7.54598 111.88746 34864 ft 442 kts 50°
2026-05-07 14:40 7.62248 111.98438 34866 ft 442 kts 50°
2026-05-07 14:41 7.69883 112.08138 34868 ft 442 kts 50°
2026-05-07 14:41 7.77579 112.17886 34872 ft 441 kts 50°
2026-05-07 14:42 7.85166 112.27524 34871 ft 441 kts 50°
2026-05-07 14:42 7.92772 112.37210 34870 ft 440 kts 50°
2026-05-07 14:43 8.00431 112.46948 34871 ft 440 kts 50°
2026-05-07 14:43 8.08038 112.56611 34873 ft 440 kts 50°
2026-05-07 14:44 8.15590 112.66239 34873 ft 440 kts 50°
2026-05-07 14:44 8.23238 112.75970 34869 ft 440 kts 50°
2026-05-07 14:45 8.30827 112.85645 34866 ft 440 kts 49°
2026-05-07 14:45 8.38430 112.95340 34866 ft 440 kts 49°
2026-05-07 14:46 8.46007 113.05037 34867 ft 440 kts 49°
2026-05-07 14:46 8.53609 113.14716 34868 ft 440 kts 49°
2026-05-07 14:47 8.61182 113.24417 34870 ft 440 kts 49°
2026-05-07 14:47 8.68765 113.34134 34869 ft 440 kts 49°
2026-05-07 14:48 8.76346 113.43828 34866 ft 440 kts 49°
2026-05-07 14:48 8.83912 113.53539 34862 ft 440 kts 49°
2026-05-07 14:49 8.91484 113.63245 34859 ft 440 kts 49°
2026-05-07 14:49 8.97776 113.71328 34856 ft 440 kts 49°
2026-05-07 14:50 9.05349 113.81038 34851 ft 440 kts 49°
2026-05-07 14:50 9.12939 113.90787 34852 ft 441 kts 49°
2026-05-07 14:51 9.20525 114.00549 34858 ft 442 kts 49°
2026-05-07 14:51 9.28122 114.10334 34858 ft 442 kts 49°
2026-05-07 14:52 9.35735 114.20133 34860 ft 443 kts 49°
2026-05-07 14:52 9.43361 114.29952 34861 ft 444 kts 49°
2026-05-07 14:53 9.51000 114.39820 34864 ft 445 kts 49°
2026-05-07 14:53 9.58649 114.49687 34871 ft 446 kts 49°
2026-05-07 14:54 9.66304 114.59578 34873 ft 446 kts 49°
2026-05-07 14:54 9.73978 114.69506 34874 ft 447 kts 49°
2026-05-07 14:55 9.81642 114.79430 34876 ft 448 kts 49°
2026-05-07 14:55 9.89326 114.89367 34873 ft 448 kts 49°
2026-05-07 14:56 9.97064 114.99305 34873 ft 448 kts 49°
2026-05-07 14:56 10.04760 115.09267 34871 ft 449 kts 49°
2026-05-07 14:57 10.12475 115.19225 34871 ft 449 kts 49°
2026-05-07 14:57 10.20209 115.29212 34874 ft 450 kts 50°
2026-05-07 14:58 10.27932 115.39210 34876 ft 450 kts 50°
2026-05-07 14:58 10.35653 115.49219 34879 ft 450 kts 50°
2026-05-07 14:59 10.43378 115.59223 34873 ft 450 kts 50°
2026-05-07 14:59 10.51099 115.69229 34870 ft 450 kts 50°
2026-05-07 15:00 10.58816 115.79269 34865 ft 450 kts 50°
2026-05-07 15:00 10.66531 115.89294 34865 ft 450 kts 50°
2026-05-07 15:01 10.74285 115.99399 34865 ft 450 kts 50°
2026-05-07 15:01 10.82021 116.09457 34869 ft 451 kts 50°
2026-05-07 15:02 10.89695 116.19458 34875 ft 452 kts 50°
2026-05-07 15:02 10.97477 116.29612 34879 ft 452 kts 50°
2026-05-07 15:03 11.05206 116.39701 34880 ft 452 kts 50°
2026-05-07 15:03 11.12888 116.49741 34875 ft 452 kts 50°
2026-05-07 15:04 11.20608 116.59849 34876 ft 452 kts 50°
2026-05-07 15:04 11.28329 116.69953 34878 ft 452 kts 51°
2026-05-07 15:05 11.36092 116.80129 34879 ft 452 kts 51°
2026-05-07 15:05 11.43799 116.90230 34879 ft 451 kts 51°
2026-05-07 15:06 11.51498 117.00357 34877 ft 451 kts 51°
2026-05-07 15:06 11.59193 117.10458 34875 ft 451 kts 51°
2026-05-07 15:07 11.66874 117.20572 34879 ft 451 kts 51°
2026-05-07 15:07 11.74539 117.30698 34872 ft 450 kts 51°
2026-05-07 15:08 11.82207 117.40791 34873 ft 450 kts 51°
2026-05-07 15:08 11.89874 117.50902 34880 ft 451 kts 51°
2026-05-07 15:09 11.97538 117.61031 34880 ft 451 kts 51°
2026-05-07 15:09 12.05226 117.71189 34884 ft 451 kts 51°
2026-05-07 15:10 12.12892 117.81337 34881 ft 451 kts 51°
2026-05-07 15:10 12.20556 117.91488 34873 ft 451 kts 51°
2026-05-07 15:11 12.28217 118.01660 34871 ft 451 kts 51°
2026-05-07 15:11 12.35873 118.11841 34874 ft 452 kts 51°
2026-05-07 15:12 12.43543 118.22042 34876 ft 452 kts 51°
2026-05-07 15:12 12.51212 118.32262 34878 ft 453 kts 52°
2026-05-07 15:13 12.58891 118.42499 34876 ft 454 kts 51°
2026-05-07 15:13 12.66578 118.52727 34874 ft 453 kts 51°
2026-05-07 15:14 12.74283 118.63021 34849 ft 456 kts 52°
2026-05-07 15:14 12.82025 118.73372 34851 ft 459 kts 52°
2026-05-07 15:15 12.89792 118.83772 34861 ft 460 kts 52°
2026-05-07 15:15 12.97560 118.94202 34865 ft 461 kts 52°
2026-05-07 15:16 13.05372 119.04642 34865 ft 461 kts 51°
2026-05-07 15:16 13.13277 119.14993 34870 ft 461 kts 51°
2026-05-07 15:17 13.21149 119.25386 34873 ft 462 kts 52°
2026-05-07 15:17 13.28106 119.34590 34866 ft 462 kts 52°
2026-05-07 15:18 13.32047 119.39808 34867 ft 463 kts 52°
2026-05-07 15:18 13.35995 119.45027 34866 ft 463 kts 52°
2026-05-07 15:19 13.39935 119.50254 34868 ft 463 kts 52°
2026-05-07 15:19 13.43879 119.55480 34862 ft 463 kts 52°
2026-05-07 15:20 13.47829 119.60717 34865 ft 463 kts 52°
2026-05-07 15:20 13.51772 119.65945 34864 ft 463 kts 52°
2026-05-07 15:21 13.55713 119.71187 34865 ft 464 kts 52°
2026-05-07 15:21 13.57689 119.73811 34694 ft 463 kts 52°
2026-05-07 15:21 13.59661 119.76426 34067 ft 463 kts 52°
2026-05-07 15:22 13.61632 119.79036 33541 ft 460 kts 52°
2026-05-07 15:22 13.63576 119.81616 33041 ft 455 kts 52°
2026-05-07 15:22 13.65508 119.84177 32613 ft 450 kts 52°
2026-05-07 15:22 13.67426 119.86720 32375 ft 449 kts 51°
2026-05-07 15:23 13.69328 119.89248 32126 ft 447 kts 51°
2026-05-07 15:23 13.71223 119.91775 31884 ft 445 kts 51°
2026-05-07 15:23 13.73110 119.94291 31647 ft 443 kts 52°
2026-05-07 15:23 13.74981 119.96785 31411 ft 440 kts 51°
2026-05-07 15:24 13.76849 119.99274 31175 ft 438 kts 51°
2026-05-07 15:24 13.78704 120.01747 30940 ft 436 kts 51°
2026-05-07 15:24 13.80577 120.04243 30703 ft 433 kts 51°
2026-05-07 15:24 13.82381 120.06650 30350 ft 429 kts 51°
2026-05-07 15:25 13.84302 120.08973 29989 ft 421 kts 42°
2026-05-07 15:25 13.86543 120.10883 29812 ft 408 kts 33°
2026-05-07 15:25 13.88945 120.12302 29442 ft 400 kts 23°
2026-05-07 15:25 13.91481 120.13449 28972 ft 396 kts 22°
2026-05-07 15:26 13.93991 120.14575 28510 ft 393 kts 22°
2026-05-07 15:26 13.96491 120.15698 28041 ft 390 kts 23°
2026-05-07 15:26 13.98973 120.16813 27572 ft 387 kts 23°
2026-05-07 15:26 14.00637 120.17562 27266 ft 386 kts 23°
2026-05-07 15:27 14.03877 120.19023 26678 ft 382 kts 23°
2026-05-07 15:27 14.05518 120.19763 26385 ft 380 kts 23°
2026-05-07 15:27 14.08718 120.21205 25813 ft 377 kts 24°
2026-05-07 15:27 14.10339 120.21936 25530 ft 376 kts 24°
2026-05-07 15:28 14.12729 120.23014 25113 ft 373 kts 24°
2026-05-07 15:28 14.15096 120.24084 24704 ft 371 kts 24°
2026-05-07 15:28 14.17456 120.25154 24296 ft 369 kts 24°
2026-05-07 15:28 14.19802 120.26218 23895 ft 367 kts 24°
2026-05-07 15:29 14.22135 120.27275 23504 ft 365 kts 24°
2026-05-07 15:29 14.24449 120.28320 23055 ft 363 kts 24°
2026-05-07 15:29 14.26624 120.29594 22566 ft 356 kts 40°
2026-05-07 15:29 14.28288 120.31441 21870 ft 350 kts 59°
2026-05-07 15:30 14.29267 120.33695 21198 ft 344 kts 77°
2026-05-07 15:30 14.29609 120.36117 20512 ft 340 kts 84°
2026-05-07 15:30 14.29846 120.38531 19860 ft 337 kts 84°
2026-05-07 15:30 14.30083 120.40921 19235 ft 334 kts 84°
2026-05-07 15:31 14.30096 120.43314 18379 ft 337 kts 101°
2026-05-07 15:31 14.29234 120.45550 17603 ft 337 kts 123°
2026-05-07 15:31 14.27604 120.47258 16887 ft 337 kts 146°
2026-05-07 15:31 14.25457 120.48184 16206 ft 336 kts 168°
2026-05-07 15:32 14.23135 120.48387 15523 ft 335 kts 176°
2026-05-07 15:32 14.20810 120.48452 14881 ft 332 kts 177°
2026-05-07 15:32 14.18508 120.48462 14266 ft 329 kts 184°
2026-05-07 15:32 14.16325 120.47803 13696 ft 328 kts 207°
2026-05-07 15:33 14.14580 120.46320 13041 ft 328 kts 231°
2026-05-07 15:33 14.13405 120.44327 12513 ft 322 kts 247°
2026-05-07 15:33 14.12894 120.42120 12021 ft 317 kts 267°
2026-05-07 15:33 14.13133 120.39887 11444 ft 313 kts 288°
2026-05-07 15:34 14.14097 120.37904 10864 ft 309 kts 309°
2026-05-07 15:34 14.15641 120.36398 10288 ft 304 kts 329°
2026-05-07 15:34 14.17542 120.35519 9711 ft 298 kts 349°
2026-05-07 15:34 14.19578 120.35328 9133 ft 290 kts
2026-05-07 15:35 14.21521 120.35809 8999 ft 288 kts 26°
2026-05-07 15:35 14.23218 120.36855 8878 ft 284 kts 43°
2026-05-07 15:35 14.24509 120.38375 8761 ft 282 kts 60°
2026-05-07 15:35 14.25275 120.40219 8641 ft 279 kts 76°
2026-05-07 15:36 14.25781 120.42146 8508 ft 278 kts 76°
2026-05-07 15:36 14.26278 120.44031 8399 ft 268 kts 76°
2026-05-07 15:36 14.26761 120.45855 8198 ft 260 kts 76°
2026-05-07 15:36 14.27236 120.47651 7995 ft 262 kts 75°
2026-05-07 15:37 14.27718 120.49467 7778 ft 262 kts 75°
2026-05-07 15:37 14.28200 120.51280 7551 ft 261 kts 75°
2026-05-07 15:37 14.28679 120.53079 7329 ft 260 kts 75°
2026-05-07 15:37 14.29158 120.54876 7108 ft 259 kts 75°
2026-05-07 15:38 14.29631 120.56659 6889 ft 258 kts 75°
2026-05-07 15:38 14.30104 120.58444 6663 ft 257 kts 75°
2026-05-07 15:38 14.30572 120.60215 6435 ft 256 kts 74°
2026-05-07 15:38 14.31049 120.62022 6200 ft 264 kts 75°
2026-05-07 15:39 14.31532 120.63854 5957 ft 265 kts 75°
2026-05-07 15:39 14.32016 120.65687 5713 ft 264 kts 75°
2026-05-07 15:39 14.32497 120.67507 5467 ft 263 kts 75°
2026-05-07 15:39 14.32981 120.69325 5212 ft 262 kts 73°
2026-05-07 15:40 14.33659 120.71072 4797 ft 263 kts 63°
2026-05-07 15:40 14.34544 120.72679 4675 ft 251 kts 60°
2026-05-07 15:40 14.35410 120.74192 4530 ft 240 kts 61°
2026-05-07 15:40 14.36220 120.75652 4395 ft 229 kts 62°
2026-05-07 15:41 14.36998 120.77044 4273 ft 221 kts 62°
2026-05-07 15:41 14.37762 120.78407 4150 ft 218 kts 62°
2026-05-07 15:41 14.38505 120.79738 4038 ft 210 kts 62°
2026-05-07 15:41 14.39220 120.81021 3885 ft 205 kts 62°
2026-05-07 15:42 14.39930 120.82296 3672 ft 203 kts 62°
2026-05-07 15:42 14.40630 120.83556 3454 ft 202 kts 63°
2026-05-07 15:42 14.41324 120.84810 3203 ft 202 kts 62°
2026-05-07 15:42 14.42032 120.86077 2885 ft 204 kts 62°
2026-05-07 15:43 14.42721 120.87310 2739 ft 193 kts 62°
2026-05-07 15:43 14.43379 120.88488 2504 ft 187 kts 62°
2026-05-07 15:43 14.44023 120.89631 2233 ft 182 kts 62°
2026-05-07 15:43 14.44649 120.90754 1972 ft 177 kts 62°
2026-05-07 15:44 14.45242 120.91844 1746 ft 172 kts 62°
2026-05-07 15:44 14.45815 120.92878 1539 ft 161 kts 62°
2026-05-07 15:44 14.46350 120.93839 1363 ft 150 kts 62°
2026-05-07 15:44 14.46857 120.94749 1169 ft 145 kts 63°
2026-05-07 15:45 14.47360 120.95658 993 ft 146 kts 61°
2026-05-07 15:45 14.47864 120.96556 816 ft 145 kts 63°
2026-05-07 15:45 14.48371 120.97471 627 ft 145 kts 63°
2026-05-07 15:45 14.48884 120.98388 409 ft 148 kts 62°
2026-05-07 15:46 14.49888 121.00189 113 ft 146 kts 63°
2026-05-07 15:46 14.50348 121.01033 60 ft 111 kts 59°
2026-05-07 15:46 14.50653 121.01565 51 ft 62 kts 59°
2026-05-07 15:47 14.50819 121.01762 44 ft 32 kts 35°